DW8306 Weather Reports


time (UTC)temp
F
wind
direction
speed
knots
gust
knots
rain 1hr
in
rain 24hr
in
rain mn
in
humidity
%
barometer
mb
20260902223047 87 118 0.0 5.2 0.00 0.09 0.09 76 1013.0
20260902221545 87 103 1.7 5.2 0.00 0.09 0.09 74 1013.0
20260902220048 88 91 0.0 6.1 0.00 0.09 0.09 74 1013.3
20260902214540 89 56 1.7 5.2 0.00 0.09 0.09 69 1013.4
20260902213041 90 188 0.9 6.1 0.00 0.09 0.09 69 1013.3
20260902211537 90 82 1.7 6.1 0.00 0.09 0.09 67 1013.3
20260902210032 90 93 2.6 7.0 0.00 0.09 0.09 68 1013.5
20260902204530 88 75 2.6 7.8 0.00 0.09 0.09 70 1014.1
20260902203029 88 83 0.9 6.1 0.00 0.09 0.09 69 1014.5
20260902201526 88 63 0.0 1.7 0.00 0.09 0.09 70 1014.6
20260902200046 89 280 0.0 1.7 0.00 0.09 0.09 69 1014.6
20260902194527 89 210 0.0 1.7 0.00 0.09 0.09 70 1014.7
20260902193024 89 100 0.0 1.7 0.00 0.09 0.09 72 1014.9
20260902191527 88 70 0.0 1.7 0.00 0.09 0.09 72 1014.8
20260902190042 88 224 0.0 1.7 0.00 0.09 0.09 72 1014.8
20260902184522 88 233 0.0 1.7 0.00 0.09 0.09 74 1014.6
20260902183022 86 116 0.0 1.7 0.04 0.09 0.09 77 1014.7
20260902181524 86 182 0.0 1.7 0.09 0.09 0.09 81 1014.8
20260902180020 83 41 0.0 1.7 0.09 0.09 0.09 87 1015.0
20260902174520 82 187 0.0 0.0 0.09 0.09 0.09 91 1015.6
20260902173020 81 197 0.0 1.7 0.05 0.05 0.05 84 1016.0
20260902171518 84 183 0.0 3.5 0.00 0.00 0.00 74 1016.1
20260902170016 87 181 0.0 4.3 0.00 0.00 0.00 71 1015.8
20260902164516 88 12 1.7 10.4 0.00 0.00 0.00 74 1015.7
20260902163014 89 70 0.0 6.1 0.00 0.00 0.00 73 1015.8
20260902161512 88 70 0.0 3.5 0.00 0.00 0.00 74 1016.0
20260902160015 88 265 0.0 0.9 0.00 0.00 0.00 76 1016.2
20260902154508 87 97 1.7 7.0 0.00 0.00 0.00 77 1016.1
20260902153006 86 79 0.0 2.6 0.00 0.00 0.00 79 1015.9
20260902151501 85 77 1.7 4.3 0.00 0.00 0.00 82 1015.8
20260902150100 84 158 0.9 6.1 0.00 0.00 0.00 82 1015.8
20260902144558 83 97 0.9 5.2 0.00 0.00 0.00 83 1015.8
20260902143056 83 70 1.7 7.0 0.00 0.00 0.00 83 1015.7
20260902141559 83 79 0.9 3.5 0.00 0.00 0.00 84 1015.6
20260902140052 82 76 0.9 8.7 0.00 0.00 0.00 85 1015.4
20260902134550 82 23 0.0 3.5 0.00 0.00 0.00 86 1015.4
20260902133050 81 97 0.0 4.3 0.00 0.00 0.00 87 1015.3
20260902131543 80 148 0.0 4.3 0.00 0.00 0.00 90 1015.3
20260902130042 78 91 0.0 1.7 0.00 0.00 0.00 92 1015.5
20260902124548 77 38 0.0 3.5 0.00 0.00 0.00 92 1015.4
20260902123043 77 93 0.0 3.5 0.00 0.00 0.00 93 1015.2
20260902121538 76 90 0.0 1.7 0.00 0.00 0.00 93 1015.2
20260902120036 76 156 0.0 0.9 0.00 0.00 0.00 93 1015.2
20260902114537 76 119 0.0 0.9 0.00 0.00 0.00 92 1015.0
20260902113033 76 73 0.0 0.9 0.00 0.00 0.00 92 1015.0
20260902111540 76 106 0.0 3.5 0.00 0.00 0.00 92 1014.8
20260902110037 76 81 0.0 4.3 0.00 0.00 0.00 92 1014.7
20260902104539 76 69 0.9 4.3 0.00 0.00 0.00 91 1014.7
20260902103030 76 68 0.9 4.3 0.00 0.00 0.00 91 1014.5
20260902101538 77 80 1.7 4.3 0.00 0.00 0.00 91 1014.6
20260902100033 77 58 0.0 1.7 0.00 0.00 0.00 91 1014.5
20260902094524 77 126 0.0 3.5 0.00 0.00 0.00 91 1014.4
20260902093025 77 92 0.0 3.5 0.00 0.00 0.00 91 1014.4
20260902091539 77 81 0.0 3.5 0.00 0.00 0.00 91 1014.4
20260902090023 77 100 0.0 3.5 0.00 0.00 0.00 90 1014.3
20260902084522 77 133 0.0 1.7 0.00 0.00 0.00 90 1014.4
20260902083022 76 77 0.0 3.5 0.00 0.00 0.00 89 1014.5
20260902081522 77 83 0.0 0.0 0.00 0.00 0.00 89 1014.5
20260902080019 77 83 0.0 0.9 0.00 0.00 0.00 88 1014.4
20260902074516 77 109 0.0 0.0 0.00 0.00 0.00 88 1014.3
20260902073017 77 109 0.0 0.0 0.00 0.00 0.00 87 1014.5
20260902071519 77 109 0.0 0.9 0.00 0.00 0.00 87 1014.6
20260902070016 77 109 0.0 0.9 0.00 0.00 0.00 86 1014.7
20260902064509 78 66 0.0 0.9 0.00 0.00 0.00 87 1014.7
20260902063013 78 66 0.0 0.9 0.00 0.00 0.00 86 1014.8
20260902061506 78 66 0.0 0.9 0.00 0.00 0.00 85 1014.9
20260902060014 78 50 0.0 0.0 0.00 0.00 0.00 85 1014.9
20260902054510 78 326 0.0 0.0 0.00 0.00 0.00 84 1014.9
20260902053002 78 326 0.0 0.0 0.00 0.00 0.00 83 1014.8
20260902051559 79 326 0.0 0.9 0.00 0.00 0.00 82 1014.8
20260902050105 79 324 0.0 0.0 0.00 0.00 0.00 81 1014.8
20260902044556 80 324 0.0 0.9 0.00 0.00 0.00 80 1014.9
20260902043055 80 324 0.0 0.0 0.00 0.00 0.00 80 1015.1
20260902041605 81 64 0.0 1.7 0.00 0.00 0.00 79 1014.9
20260902040054 81 95 0.0 1.7 0.00 0.00 0.00 79 1014.7
20260902034555 81 25 0.0 1.7 0.00 0.00 0.00 79 1014.5
20260902033106 81 67 0.0 1.7 0.00 0.00 0.00 78 1014.4
20260902031552 82 251 0.9 6.1 0.00 0.00 0.00 79 1014.5
20260902030053 82 39 0.0 0.9 0.00 0.00 0.00 79 1014.4
20260902024551 82 339 0.0 1.7 0.00 0.00 0.00 78 1014.1
20260902023050 82 304 0.0 3.5 0.00 0.00 0.00 78 1014.1
20260902021607 82 291 0.0 0.9 0.00 0.00 0.00 78 1013.9
20260902020050 83 291 0.0 0.0 0.00 0.00 0.00 77 1013.6
20260902014545 83 291 0.0 0.0 0.00 0.00 0.00 76 1013.4
20260902013044 84 291 0.0 0.9 0.00 0.00 0.00 75 1013.3
20260902011545 85 291 0.0 0.9 0.00 0.00 0.00 75 1013.3
20260902010056 86 228 0.0 0.9 0.00 0.00 0.00 73 1013.3
20260902004546 87 280 0.0 1.7 0.00 0.00 0.00 72 1013.2
20260902003042 88 155 0.0 1.7 0.00 0.00 0.00 70 1013.2
20260902001541 90 328 0.0 2.6 0.00 0.00 0.00 67 1013.2
20260902000052 91 231 0.0 1.7 0.00 0.00 0.00 65 1013.1
20260901234604 92 91 0.0 1.7 0.00 0.00 0.00 63 1012.9
20260901233040 95 224 0.0 1.7 0.00 0.00 0.00 58 1013.0
20260901231548 95 100 0.0 6.1 0.00 0.00 0.00 56 1012.8
20260901230101 95 137 0.0 3.5 0.00 0.00 0.00 56 1012.7
20260901224539 95 83 0.9 7.0 0.00 0.00 0.00 56 1012.7